Home > Weather > Mwanza > Past weeks

Flag for Tanzania Weather for the Past 2 Weeks in Mwanza, Tanzania

Now
77 °F

Passing clouds.


Feels Like: 79 °F
Forecast: 69 / 81 °F
Wind: No wind

Location: Mwanza Airport

Current Time: Feb 8, 2016 at 9:17:33 PM

Latest Report: Feb 8, 2016 at 8:00 PM


Visibility: N/A

Pressure: 30.01 "Hg (26.32 "Hg at 1146m altitude)

Humidity: 79%

Dew point: 70 °F

Location of MwanzaLocation

Historic Weather in Mwanza — Graph

°F

Mwanza Temperature Yesterday

Maximum temperature yesterday: 84 °F (at 12:00 PM)
Minimum temperature yesterday: 70 °F (at 7:00 AM)
Average temperature yesterday: 75 °F

High & Low Weather Summary for the Past Weeks

 TemperatureHumidityPressure
High86 °F (Feb 6, 2:00 PM)100% (Feb 4, 6:00 AM)32.52 "Hg (Feb 4, 6:00 AM)
Low63 °F (Jan 29, 6:00 AM)45% (Jan 30, 3:00 PM)29.92 "Hg (Jan 31, 5:00 PM)
Average75 °F74%30.02 "Hg
* Reported Jan 24 8:00 PM — Feb 8 8:00 PM, Mwanza, Weather by CustomWeather, © 2016

Note: Actual official high and low records may vary slightly from our data, if they occured in-between our weather recording intervals... More about our weather records

Advertising

Mwanza Weather History for the Previous 24 Hours

 ConditionsComfort  
Time TempWeatherWind HumidityBarometerVisibility
8:00 PM
Mon, Feb 8
77 °FPassing clouds.No wind79%30.01 "HgN/A
7:00 PM77 °FScattered clouds.No wind79%29.98 "HgN/A
6:00 PM77 °FScattered clouds.3 mph74%29.98 "HgN/A
5:00 PM81 °FScattered clouds.7 mph66%29.95 "HgN/A
4:00 PM81 °FPassing clouds.9 mph70%29.98 "HgN/A
3:00 PM81 °FScattered clouds.12 mph70%30.01 "HgN/A
2:00 PM79 °FPartly sunny.7 mph74%30.04 "HgN/A
1:00 PM79 °FPartly sunny.6 mph70%30.04 "HgN/A
12:00 PM77 °FPartly sunny.9 mph69%30.07 "HgN/A
11:00 AM75 °FPartly sunny.No wind78%30.07 "HgN/A
10:00 AM73 °FPartly sunny.6 mph83%30.07 "HgN/A
9:00 AM72 °FPartly sunny.3 mph88%30.07 "HgN/A
8:00 AM72 °FPartly sunny.No wind78%30.04 "HgN/A
7:00 AM70 °FPartly sunny.No wind88%30.01 "HgN/A
6:00 AM72 °FPassing clouds.No wind78%30.01 "HgN/A
12:00 AM72 °FPassing clouds.7 mph83%30.01 "HgN/A
11:00 PM
Sun, Feb 7
72 °FPassing clouds.6 mph83%30.04 "HgN/A
10:00 PM73 °FPassing clouds.No wind69%30.04 "HgN/A
9:00 PM73 °FPassing clouds.6 mph69%30.01 "HgN/A
Weather by CustomWeather, © 2016

See weather overviewHow to use our weather pages